Location: Waco, TX
(31.5480°N, 97.1670°W)
Time: 04:02:12
(UTC-06:00)

ISS - Pass Details

Date: 16 January 2019
Orbit: 404 x 407 km, 51.6° (Epoch: 16 January)

Event Time Altitude Azimuth Distance (km) Brightness Sun altitude
Rises 03:52:26 0° 332° (NNW) 2,329 - -45.6°
Reaches altitude 10° 03:55:17 10° 359° (N) 1,466 - -45.0°
Maximum altitude 03:57:07 14° 34° (NNE) 1,242 - -44.6°
Drops below altitude 10° 03:58:58 10° 68° (ENE) 1,463 - -44.2°
Sets 04:01:47 0° 95° (E) 2,319 - -43.6°
